Terug naar catalogus

YUNYAO-1 60

ActiefWeerSSO
NORAD 63296·PAYLOAD·🇨🇳 China
Deze satellietnaam is nog niet bevestigd door officiële bronnen.

Gelanceerd Mar 17, 2025 vanaf Jiuquan Satellite Launch Center

Loading…

Volgende Passages (komende 24 uur)

TLE

VersSource: Space-Track

Epoch: Sep 14, 2026, 22:48 UTC

1 63296U 25055F   26257.95030449  .00008861  00000-0  44048-3 0  9995
2 63296  97.6648  38.6684 0011661 169.7044 190.4430 15.17828676 82618

Volg YUNYAO-1 60 in realtime met AllMySat

Download on the App Store